TimeCST,TemperatureF,Dew PointF,Humidity,Sea Level PressureIn,VisibilityMPH,Wind Direction,Wind SpeedMPH,Gust SpeedMPH,PrecipitationIn,Events,Conditions,WindDirDegrees,DateUTC
12:55 AM,42.1,39.9,92,29.95,10.0,NNE,10.4,-,N/A,,Overcast,20,2012-12-07 06:55:00
1:41 AM,42.8,39.2,87,29.93,8.0,NNE,8.1,-,N/A,,Overcast,30,2012-12-07 07:41:00
1:55 AM,42.1,39.9,92,29.95,7.0,NNE,12.7,-,N/A,,Overcast,20,2012-12-07 07:55:00
2:55 AM,42.1,39.9,92,29.95,6.0,NNE,11.5,-,N/A,,Overcast,30,2012-12-07 08:55:00
3:55 AM,41.0,39.0,93,29.94,7.0,NNE,12.7,-,N/A,,Overcast,30,2012-12-07 09:55:00
4:27 AM,41.0,39.2,93,29.92,7.0,NNE,10.4,-,N/A,,Overcast,30,2012-12-07 10:27:00
4:55 AM,41.0,39.0,93,29.94,7.0,NE,10.4,-,N/A,,Overcast,50,2012-12-07 10:55:00
5:37 AM,41.0,39.2,93,29.91,6.0,NE,8.1,-,N/A,,Overcast,40,2012-12-07 11:37:00
5:55 AM,39.9,39.0,97,29.94,5.0,NNE,10.4,-,N/A,,Overcast,30,2012-12-07 11:55:00
6:48 AM,39.2,37.4,93,29.91,6.0,NE,10.4,-,N/A,,Overcast,40,2012-12-07 12:48:00
6:55 AM,39.9,37.9,93,29.94,6.0,NE,8.1,-,N/A,,Overcast,40,2012-12-07 12:55:00
7:55 AM,39.9,37.9,93,29.94,6.0,NE,8.1,-,N/A,,Overcast,40,2012-12-07 13:55:00
8:08 AM,39.2,37.4,93,29.91,7.0,NNE,10.4,-,N/A,,Overcast,30,2012-12-07 14:08:00
8:55 AM,39.9,37.9,93,29.95,7.0,NE,10.4,-,N/A,,Overcast,40,2012-12-07 14:55:00
9:55 AM,39.9,37.9,93,29.95,7.0,NE,6.9,-,N/A,,Overcast,40,2012-12-07 15:55:00
10:09 AM,41.0,37.4,87,29.93,7.0,NNE,9.2,-,N/A,,Overcast,30,2012-12-07 16:09:00
10:37 AM,41.0,37.4,87,29.92,7.0,NE,8.1,-,N/A,,Overcast,50,2012-12-07 16:37:00
10:55 AM,41.0,37.9,89,29.94,7.0,NE,6.9,-,N/A,,Overcast,50,2012-12-07 16:55:00
11:13 AM,41.0,37.4,87,29.91,7.0,NE,4.6,-,N/A,,Overcast,50,2012-12-07 17:13:00
11:55 AM,42.1,37.9,85,29.92,7.0,NNE,6.9,-,N/A,,Overcast,20,2012-12-07 17:55:00
12:11 PM,42.8,39.2,87,29.89,7.0,NNE,6.9,-,N/A,,Overcast,30,2012-12-07 18:11:00
12:55 PM,42.1,39.0,89,29.90,7.0,NNE,5.8,-,N/A,,Overcast,20,2012-12-07 18:55:00
1:55 PM,42.1,39.0,89,29.88,5.0,NE,8.1,-,N/A,,Overcast,40,2012-12-07 19:55:00
2:55 PM,42.1,39.0,89,29.88,5.0,NNE,6.9,-,N/A,,Overcast,20,2012-12-07 20:55:00
3:55 PM,41.0,39.0,93,29.90,3.0,North,5.8,-,N/A,,Overcast,10,2012-12-07 21:55:00
4:55 PM,39.9,39.0,97,29.91,3.0,North,3.5,-,N/A,,Overcast,350,2012-12-07 22:55:00
5:18 PM,39.2,39.2,100,29.89,2.5,North,5.8,-,N/A,,Overcast,350,2012-12-07 23:18:00
5:48 PM,39.2,39.2,100,29.89,1.5,North,4.6,-,N/A,,Overcast,350,2012-12-07 23:48:00
5:55 PM,39.9,39.0,97,29.92,1.2,North,4.6,-,N/A,,Overcast,360,2012-12-07 23:55:00
6:32 PM,39.2,39.2,100,29.89,1.5,North,4.6,-,0.01,,Overcast,360,2012-12-08 00:32:00
6:55 PM,39.9,39.0,97,29.94,1.2,North,4.6,-,0.01,,Overcast,350,2012-12-08 00:55:00
7:55 PM,39.0,39.0,100,29.94,1.5,North,5.8,-,N/A,,Overcast,360,2012-12-08 01:55:00
8:22 PM,39.2,39.2,100,29.91,2.0,North,6.9,-,N/A,,Overcast,10,2012-12-08 02:22:00
8:55 PM,39.0,39.0,100,29.93,2.5,North,6.9,-,0.00,Rain,Light Rain,10,2012-12-08 02:55:00
9:04 PM,39.2,37.4,93,29.91,3.0,North,5.8,-,0.00,Rain,Light Rain,360,2012-12-08 03:04:00
9:55 PM,39.0,37.9,96,29.94,4.0,ENE,3.5,-,0.02,Rain,Light Rain,60,2012-12-08 03:55:00
10:44 PM,39.2,37.4,93,29.89,3.0,East,4.6,-,0.01,Rain,Light Rain,100,2012-12-08 04:44:00
10:55 PM,39.0,37.9,96,29.93,5.0,North,3.5,-,0.01,,Overcast,360,2012-12-08 04:55:00
11:55 PM,39.0,37.9,96,29.94,4.0,North,3.5,-,N/A,,Overcast,350,2012-12-08 05:55:00